sat.trackr.live / text

‹ back to catalog

STARLINK-11358 [DTC]

NORAD 62558 · 2025-006E

PAYLOAD ACTIVE UNKNOWN

§ Identity

Operator
Country
US
Launch date
2025-01-10
Launch site
AFETR
Launch vehicle
Mass (kg)
RCS (m²)

Purposes: comms

External: N2YO · Heavens-Above · Gunter

§ Orbital elements

Epoch: 2026-09-21T15:45:22.533120Z

Period
91.67 min
Inclination
43.0001°
Eccentricity
0.0001469
Mean motion
15.70826511 rev/d
Perigee alt
355.5 km
Apogee alt
357.5 km
Semi-major
6,734.7 km
B*
1.2043e-3
RAAN
38.6060°
Arg perigee
275.5951°
Mean anomaly
84.4749°
Rev number
9,742

§ Raw data

STARLINK-11358 [DTC]1 62558U 25006E   26264.65651080  .00156935  00000+0  12043-2 0  99902 62558  43.0001  38.6060 0001469 275.5951  84.4749 15.70826511 97427

JSON: /api/v1/satellites/62558 · /tle

For live sub-satellite position, see the globe view (requires WebGL).

§ Visibility from observer

Set your observer location to see the next 7 days of passes ≥ 10°. The values pass through the URL so the page stays shareable.

No JS? Fill the form by hand. The geolocation button needs JavaScript.